カタログに戻る

CZ-4C DEB

運用中SSO
NORAD 37569·DEBRIS·🇨🇳 China

打ち上げ Aug 9, 2010 から Taiyuan Satellite Launch Center

Loading…

次のパス (今後24時間)

TLE

最新Source: Space-Track

元期: Sep 13, 2026, 19:46 UTC

1 37569U 10038E   26256.82388020  .00011190  00000-0  72970-3 0  9994
2 37569  97.9848  34.1580 0069654  34.8874 325.6888 15.06052738852891

AllMySatでCZ-4C DEBをリアルタイム追跡

Download on the App Store